| time (UTC) | temp F | wind direction | speed MPH | gust MPH | rain 1hr in | rain 24hr in | rain mn in | humidity % | barometer mb |
| 20260502221553 | 70 | 185 | 5.0 | 13.0 | 0.00 | 0.00 | 0.00 | 31 | 1013.9 |
| 20260502220049 | 70 | 145 | 6.0 | 14.0 | 0.00 | 0.00 | 0.00 | 32 | 1014.1 |
| 20260502214547 | 70 | 167 | 6.0 | 12.0 | 0.00 | 0.00 | 0.00 | 34 | 1014.3 |
| 20260502213045 | 70 | 189 | 5.0 | 11.0 | 0.00 | 0.00 | 0.00 | 33 | 1014.4 |
| 20260502211545 | 70 | 152 | 4.0 | 9.0 | 0.00 | 0.00 | 0.00 | 34 | 1014.5 |
| 20260502210042 | 70 | 178 | 1.0 | 6.0 | 0.00 | 0.00 | 0.00 | 34 | 1014.7 |
| 20260502204544 | 69 | 213 | 1.0 | 4.0 | 0.00 | 0.00 | 0.00 | 35 | 1015.0 |
| 20260502203043 | 70 | 242 | 3.0 | 7.0 | 0.00 | 0.00 | 0.00 | 33 | 1015.1 |
| 20260502201538 | 70 | 192 | 0.0 | 1.0 | 0.00 | 0.00 | 0.00 | 33 | 1015.3 |
| 20260502200045 | 69 | 213 | 1.0 | 4.0 | 0.00 | 0.00 | 0.00 | 34 | 1015.4 |
| 20260502194548 | 68 | 259 | 0.0 | 4.0 | 0.00 | 0.00 | 0.00 | 36 | 1015.5 |
| 20260502193054 | 68 | 216 | 1.0 | 4.0 | 0.00 | 0.00 | 0.00 | 41 | 1015.6 |
| 20260502191545 | 67 | 13 | 0.0 | 1.0 | 0.00 | 0.00 | 0.00 | 36 | 1015.8 |
| 20260502190040 | 66 | 281 | 0.0 | 3.0 | 0.00 | 0.00 | 0.00 | 37 | 1015.8 |
| 20260502184542 | 64 | 300 | 0.0 | 4.0 | 0.00 | 0.00 | 0.00 | 44 | 1015.9 |
| 20260502183043 | 62 | 229 | 0.0 | 4.0 | 0.00 | 0.00 | 0.00 | 51 | 1016.1 |
| 20260502181547 | 62 | 259 | 1.0 | 3.0 | 0.00 | 0.00 | 0.00 | 51 | 1016.4 |
| 20260502163048 | 57 | 0 | 0.0 | 0.0 | 0.00 | 0.00 | 0.00 | 53 | 1016.7 |
| 20260502161606 | 55 | 0 | 0.0 | 3.0 | 0.00 | 0.00 | 0.00 | 56 | 1016.9 |
| 20260502160104 | 53 | 0 | 0.0 | 0.0 | 0.00 | 0.00 | 0.00 | 62 | 1016.8 |
| 20260502151550 | 49 | 0 | 0.0 | 2.0 | 0.00 | 0.00 | 0.00 | 62 | 1016.7 |
| 20260502130103 | 43 | 0 | 0.0 | 3.0 | 0.00 | 0.00 | 0.00 | 78 | 1016.1 |
| 20260502123111 | 43 | 360 | 0.0 | 3.0 | 0.00 | 0.00 | 0.00 | 77 | 1016.1 |
| 20260502121538 | 44 | 0 | 0.0 | 4.0 | 0.00 | 0.00 | 0.00 | 72 | 1016.1 |
| 20260502114545 | 46 | 192 | 0.0 | 0.0 | 0.00 | 0.00 | 0.00 | 68 | 1016.2 |
| 20260502113039 | 47 | 0 | 0.0 | 0.0 | 0.00 | 0.00 | 0.00 | 70 | 1016.3 |
| 20260502111539 | 47 | 0 | 0.0 | 0.0 | 0.00 | 0.00 | 0.00 | 69 | 1016.2 |
| 20260502110049 | 47 | 0 | 0.0 | 0.0 | 0.00 | 0.00 | 0.00 | 69 | 1016.2 |
| 20260502104541 | 47 | 0 | 0.0 | 0.0 | 0.00 | 0.00 | 0.00 | 69 | 1016.2 |
| 20260502103039 | 47 | 0 | 0.0 | 0.0 | 0.00 | 0.00 | 0.00 | 70 | 1016.1 |
| 20260502101549 | 47 | 0 | 0.0 | 0.0 | 0.00 | 0.00 | 0.00 | 70 | 1016.1 |
| 20260502070044 | 54 | 0 | 0.0 | 0.0 | 0.00 | 0.00 | 0.00 | 55 | 1016.9 |
| 20260502064543 | 55 | 0 | 0.0 | 3.0 | 0.00 | 0.00 | 0.00 | 53 | 1016.7 |
| 20260502063055 | 56 | 0 | 0.0 | 2.0 | 0.00 | 0.00 | 0.00 | 51 | 1016.8 |
| 20260502061539 | 56 | 0 | 0.0 | 2.0 | 0.00 | 0.00 | 0.00 | 50 | 1016.7 |
| 20260502060040 | 57 | 167 | 1.0 | 5.0 | 0.00 | 0.00 | 0.00 | 49 | 1016.9 |
| 20260502054545 | 56 | 164 | 1.0 | 5.0 | 0.00 | 0.00 | 0.00 | 48 | 1017.0 |
| 20260502053045 | 56 | 188 | 2.0 | 4.0 | 0.00 | 0.00 | 0.00 | 47 | 1016.7 |
| 20260502051544 | 57 | 195 | 0.0 | 0.0 | 0.00 | 0.00 | 0.00 | 47 | 1016.8 |
| 20260502050039 | 58 | 0 | 0.0 | 4.0 | 0.00 | 0.00 | 0.00 | 46 | 1016.8 |
| 20260502044544 | 59 | 0 | 0.0 | 2.0 | 0.00 | 0.00 | 0.00 | 39 | 1016.7 |
| 20260502043040 | 58 | 253 | 1.0 | 4.0 | 0.00 | 0.00 | 0.00 | 43 | 1016.5 |
| 20260502041552 | 60 | 0 | 0.0 | 0.0 | 0.00 | 0.00 | 0.00 | 40 | 1016.4 |
| 20260502040043 | 60 | 0 | 0.0 | 2.0 | 0.00 | 0.00 | 0.00 | 38 | 1016.2 |
| 20260502034540 | 61 | 0 | 0.0 | 0.0 | 0.00 | 0.00 | 0.00 | 39 | 1016.1 |
| 20260502033045 | 63 | 0 | 0.0 | 1.0 | 0.00 | 0.00 | 0.00 | 35 | 1015.9 |
| 20260502031539 | 64 | 0 | 1.0 | 7.0 | 0.00 | 0.00 | 0.00 | 36 | 1015.7 |
| 20260502030038 | 66 | 311 | 3.0 | 9.0 | 0.00 | 0.00 | 0.00 | 28 | 1015.4 |
| 20260502024600 | 66 | 270 | 4.0 | 9.0 | 0.00 | 0.00 | 0.00 | 28 | 1015.3 |
| 20260502023039 | 67 | 252 | 3.0 | 9.0 | 0.00 | 0.00 | 0.00 | 27 | 1015.3 |
| 20260502021540 | 68 | 257 | 4.0 | 11.0 | 0.00 | 0.00 | 0.00 | 26 | 1015.3 |
| 20260502020039 | 69 | 241 | 6.0 | 11.0 | 0.00 | 0.00 | 0.00 | 24 | 1015.1 |
| 20260502014543 | 70 | 251 | 4.0 | 9.0 | 0.00 | 0.00 | 0.00 | 20 | 1015.3 |
| 20260502013045 | 71 | 261 | 4.0 | 9.0 | 0.00 | 0.00 | 0.00 | 19 | 1015.3 |
| 20260502011542 | 71 | 274 | 2.0 | 9.0 | 0.00 | 0.00 | 0.00 | 19 | 1015.2 |
| 20260502010050 | 72 | 254 | 5.0 | 11.0 | 0.00 | 0.00 | 0.00 | 16 | 1015.4 |
| 20260502004553 | 72 | 325 | 1.0 | 9.0 | 0.00 | 0.00 | 0.00 | 16 | 1015.4 |
| 20260502003043 | 73 | 304 | 4.0 | 9.0 | 0.00 | 0.00 | 0.00 | 17 | 1015.4 |
| 20260502001540 | 73 | 248 | 3.0 | 8.0 | 0.00 | 0.00 | 0.00 | 16 | 1015.5 |
| 20260502000044 | 73 | 347 | 3.0 | 8.0 | 0.00 | 0.00 | 0.00 | 15 | 1015.5 |
| 20260501234541 | 73 | 305 | 2.0 | 7.0 | 0.00 | 0.00 | 0.00 | 15 | 1015.7 |
| 20260501233047 | 73 | 268 | 0.0 | 8.0 | 0.00 | 0.00 | 0.00 | 17 | 1015.9 |
| 20260501231540 | 72 | 304 | 2.0 | 9.0 | 0.00 | 0.00 | 0.00 | 17 | 1016.1 |
| 20260501230046 | 74 | 248 | 3.0 | 10.0 | 0.00 | 0.00 | 0.00 | 16 | 1016.3 |
| 20260501224550 | 73 | 0 | 2.0 | 8.0 | 0.00 | 0.00 | 0.00 | 18 | 1016.5 |
| 20260501223042 | 71 | 307 | 2.0 | 10.0 | 0.00 | 0.00 | 0.00 | 16 | 1016.7 |